Time,TemperatureF,DewpointF,PressureIn,WindDirection,WindDirectionDegrees,WindSpeedMPH,WindSpeedGustMPH,Humidity,HourlyPrecipIn,Conditions,Clouds,dailyrainin,SoftwareType,DateUTC
2013-03-02 00:00:00,26.8,23.9,29.85,NW,306,3.0,7.0,89,0.00,,,0.00,meteohub,2013-03-02 05:00:00,
2013-03-02 00:05:00,26.8,23.9,29.85,WNW,296,0.0,7.0,89,0.00,,,0.00,meteohub,2013-03-02 05:05:00,
2013-03-02 00:10:00,26.8,23.9,29.85,NNE,24,3.0,6.0,89,0.00,,,0.00,meteohub,2013-03-02 05:10:00,
2013-03-02 00:15:00,26.8,23.9,29.85,NW,308,2.0,5.0,89,0.00,,,0.00,meteohub,2013-03-02 05:15:00,
2013-03-02 00:20:00,26.8,23.9,29.84,NW,312,2.0,7.0,89,0.00,,,0.00,meteohub,2013-03-02 05:20:00,
2013-03-02 00:25:00,26.8,23.9,29.84,North,350,4.0,7.0,89,0.00,,,0.00,meteohub,2013-03-02 05:25:00,
2013-03-02 00:30:00,26.8,23.9,29.84,NNW,333,2.0,7.0,89,0.00,,,0.00,meteohub,2013-03-02 05:30:00,
2013-03-02 00:35:00,26.8,23.9,29.84,WNW,302,2.0,7.0,89,0.00,,,0.00,meteohub,2013-03-02 05:35:00,
2013-03-02 00:40:00,26.8,23.9,29.84,NNW,340,3.0,5.0,89,0.00,,,0.00,meteohub,2013-03-02 05:40:00,
2013-03-02 00:45:00,26.6,23.7,29.84,WNW,288,10.0,10.0,89,0.00,,,0.00,meteohub,2013-03-02 05:45:00,
2013-03-02 00:50:00,26.6,24.1,29.85,NW,320,4.0,10.0,90,0.00,,,0.00,meteohub,2013-03-02 05:50:00,
2013-03-02 00:55:00,26.4,23.9,29.84,North,350,5.0,10.0,90,0.00,,,0.00,meteohub,2013-03-02 05:55:00,
2013-03-02 01:00:00,26.4,23.9,29.84,NW,304,1.0,10.0,90,0.00,,,0.00,meteohub,2013-03-02 06:00:00,
2013-03-02 01:05:00,26.4,24.1,29.84,North,5,1.0,10.0,91,0.00,,,0.00,meteohub,2013-03-02 06:05:00,
2013-03-02 01:10:00,26.4,24.1,29.84,NW,326,4.0,8.0,91,0.00,,,0.00,meteohub,2013-03-02 06:10:00,
2013-03-02 01:15:00,26.2,23.9,29.84,NW,305,5.0,11.0,91,0.00,,,0.00,meteohub,2013-03-02 06:15:00,
2013-03-02 01:20:00,26.2,23.9,29.84,NNW,327,4.0,11.0,91,0.00,,,0.00,meteohub,2013-03-02 06:20:00,
2013-03-02 01:25:00,26.2,23.9,29.84,NW,318,2.0,11.0,91,0.00,,,0.00,meteohub,2013-03-02 06:25:00,
2013-03-02 01:30:00,26.2,23.9,29.84,NW,326,4.0,11.0,91,0.00,,,0.00,meteohub,2013-03-02 06:30:00,
2013-03-02 01:35:00,26.2,23.9,29.84,WNW,302,6.0,11.0,91,0.00,,,0.00,meteohub,2013-03-02 06:35:00,
2013-03-02 01:40:00,26.4,24.1,29.84,NW,309,3.0,9.0,91,0.00,,,0.00,meteohub,2013-03-02 06:40:00,
2013-03-02 01:45:00,26.4,24.1,29.84,NNW,327,4.0,8.0,91,0.00,,,0.00,meteohub,2013-03-02 06:45:00,
2013-03-02 01:50:00,26.4,24.1,29.84,NNW,346,4.0,8.0,91,0.00,,,0.00,meteohub,2013-03-02 06:50:00,
2013-03-02 01:55:00,26.4,24.1,29.84,NW,323,2.0,6.0,91,0.00,,,0.00,meteohub,2013-03-02 06:55:00,
2013-03-02 02:00:00,26.4,24.1,29.84,WNW,302,4.0,6.0,91,0.00,,,0.00,meteohub,2013-03-02 07:00:00,
2013-03-02 02:05:00,26.4,24.1,29.84,NW,310,4.0,6.0,91,0.00,,,0.00,meteohub,2013-03-02 07:05:00,
2013-03-02 02:10:00,26.4,24.1,29.84,North,5,3.0,8.0,91,0.00,,,0.00,meteohub,2013-03-02 07:10:00,
2013-03-02 02:15:00,26.4,24.1,29.84,NNW,338,2.0,8.0,91,0.00,,,0.00,meteohub,2013-03-02 07:15:00,
2013-03-02 02:21:00,26.4,24.1,29.84,North,350,2.0,7.0,91,0.00,,,0.00,meteohub,2013-03-02 07:21:00,
2013-03-02 02:26:00,26.4,24.1,29.84,WNW,294,3.0,7.0,91,0.00,,,0.00,meteohub,2013-03-02 07:26:00,
2013-03-02 02:31:00,26.4,24.1,29.84,NNW,331,1.0,6.0,91,0.00,,,0.00,meteohub,2013-03-02 07:31:00,
2013-03-02 02:36:00,26.4,24.1,29.84,NNW,346,5.0,6.0,91,0.00,,,0.00,meteohub,2013-03-02 07:36:00,
2013-03-02 02:41:00,26.6,24.3,29.84,North,5,4.0,7.0,91,0.00,,,0.00,meteohub,2013-03-02 07:41:00,
2013-03-02 02:46:00,26.6,24.1,29.84,NNW,328,3.0,7.0,90,0.00,,,0.00,meteohub,2013-03-02 07:46:00,
2013-03-02 02:51:00,26.6,24.1,29.84,WNW,285,0.0,6.0,90,0.00,,,0.00,meteohub,2013-03-02 07:51:00,
2013-03-02 02:56:00,26.6,24.1,29.83,WNW,298,2.0,6.0,90,0.00,,,0.00,meteohub,2013-03-02 07:56:00,
2013-03-02 03:01:00,26.6,24.1,29.83,NW,305,2.0,6.0,90,0.00,,,0.00,meteohub,2013-03-02 08:01:00,
2013-03-02 03:06:00,26.6,24.1,29.83,NNW,346,1.0,7.0,90,0.00,,,0.00,meteohub,2013-03-02 08:06:00,
2013-03-02 03:11:00,26.6,24.1,29.83,NNW,329,2.0,7.0,90,0.00,,,0.00,meteohub,2013-03-02 08:11:00,
2013-03-02 03:16:00,26.6,24.1,29.83,NNW,342,3.0,4.0,90,0.00,,,0.00,meteohub,2013-03-02 08:16:00,
2013-03-02 03:21:00,26.6,24.1,29.83,NNW,346,3.0,5.0,90,0.00,,,0.00,meteohub,2013-03-02 08:21:00,
2013-03-02 03:26:00,26.6,24.1,29.84,NNE,15,3.0,6.0,90,0.00,,,0.00,meteohub,2013-03-02 08:26:00,
2013-03-02 03:31:00,26.6,24.1,29.84,NW,321,2.0,6.0,90,0.00,,,0.00,meteohub,2013-03-02 08:31:00,
2013-03-02 03:36:00,26.6,24.1,29.84,WNW,296,1.0,6.0,90,0.00,,,0.00,meteohub,2013-03-02 08:36:00,
2013-03-02 03:41:00,26.6,24.1,29.84,WNW,297,6.0,6.0,90,0.00,,,0.00,meteohub,2013-03-02 08:41:00,
2013-03-02 03:46:00,26.6,24.1,29.84,NW,321,3.0,8.0,90,0.00,,,0.00,meteohub,2013-03-02 08:46:00,
2013-03-02 03:51:00,26.6,24.1,29.84,NW,307,7.0,8.0,90,0.00,,,0.00,meteohub,2013-03-02 08:51:00,
2013-03-02 03:56:00,26.6,24.1,29.84,WNW,302,3.0,8.0,90,0.00,,,0.00,meteohub,2013-03-02 08:56:00,
2013-03-02 04:01:00,26.4,23.9,29.84,NW,314,8.0,8.0,90,0.00,,,0.00,meteohub,2013-03-02 09:01:00,
2013-03-02 04:06:00,26.4,23.9,29.84,North,355,7.0,10.0,90,0.00,,,0.00,meteohub,2013-03-02 09:06:00,
2013-03-02 04:11:00,26.4,23.9,29.84,NNW,340,5.0,10.0,90,0.00,,,0.00,meteohub,2013-03-02 09:11:00,
2013-03-02 04:16:00,26.4,24.1,29.84,WNW,293,9.0,10.0,91,0.00,,,0.00,meteohub,2013-03-02 09:16:00,
2013-03-02 04:21:00,26.4,24.1,29.84,NNW,345,4.0,10.0,91,0.00,,,0.00,meteohub,2013-03-02 09:21:00,
2013-03-02 04:26:00,26.2,23.9,29.84,NNW,346,2.0,10.0,91,0.00,,,0.00,meteohub,2013-03-02 09:26:00,
2013-03-02 04:31:00,26.2,23.9,29.84,NNW,346,1.0,10.0,91,0.00,,,0.00,meteohub,2013-03-02 09:31:00,
2013-03-02 04:36:00,26.2,23.9,29.85,NW,324,4.0,6.0,91,0.00,,,0.00,meteohub,2013-03-02 09:36:00,
2013-03-02 04:41:00,26.2,23.9,29.84,NW,312,4.0,7.0,91,0.00,,,0.00,meteohub,2013-03-02 09:41:00,
2013-03-02 04:46:00,26.2,23.9,29.84,NW,304,5.0,8.0,91,0.00,,,0.00,meteohub,2013-03-02 09:46:00,
2013-03-02 04:51:00,26.2,23.9,29.84,NNW,336,3.0,8.0,91,0.00,,,0.00,meteohub,2013-03-02 09:51:00,
2013-03-02 04:56:00,26.2,23.9,29.84,WNW,303,4.0,8.0,91,0.00,,,0.00,meteohub,2013-03-02 09:56:00,
2013-03-02 05:01:00,26.2,23.9,29.84,NNW,331,4.0,9.0,91,0.00,,,0.00,meteohub,2013-03-02 10:01:00,
2013-03-02 05:06:00,26.2,23.9,29.84,NW,326,4.0,9.0,91,0.00,,,0.00,meteohub,2013-03-02 10:06:00,
2013-03-02 05:11:00,26.2,23.9,29.84,North,355,6.0,9.0,91,0.00,,,0.00,meteohub,2013-03-02 10:11:00,
2013-03-02 05:16:00,26.2,23.9,29.84,NW,315,4.0,12.0,91,0.00,,,0.00,meteohub,2013-03-02 10:16:00,
2013-03-02 05:21:00,26.2,23.9,29.84,WNW,300,6.0,12.0,91,0.00,,,0.00,meteohub,2013-03-02 10:21:00,
2013-03-02 05:26:00,26.2,23.9,29.84,NNW,347,3.0,12.0,91,0.00,,,0.00,meteohub,2013-03-02 10:26:00,
2013-03-02 05:31:00,26.4,24.1,29.84,NNW,333,3.0,12.0,91,0.00,,,0.00,meteohub,2013-03-02 10:31:00,
2013-03-02 05:42:00,26.4,23.9,29.84,NW,307,7.0,9.0,90,0.00,,,0.00,meteohub,2013-03-02 10:42:00,
2013-03-02 05:47:00,26.4,23.9,29.84,North,355,4.0,9.0,90,0.00,,,0.00,meteohub,2013-03-02 10:47:00,
2013-03-02 05:52:00,26.4,23.9,29.83,NNW,338,5.0,12.0,90,0.00,,,0.00,meteohub,2013-03-02 10:52:00,
2013-03-02 05:57:00,26.4,23.9,29.83,NNW,330,2.0,12.0,90,0.00,,,0.00,meteohub,2013-03-02 10:57:00,
2013-03-02 06:02:00,26.2,23.7,29.83,NNW,340,3.0,12.0,90,0.00,,,0.00,meteohub,2013-03-02 11:02:00,
2013-03-02 06:07:00,26.2,23.7,29.83,NNW,327,3.0,11.0,90,0.00,,,0.00,meteohub,2013-03-02 11:07:00,
2013-03-02 06:12:00,26.2,23.7,29.83,NNW,342,4.0,8.0,90,0.00,,,0.00,meteohub,2013-03-02 11:12:00,
2013-03-02 06:17:00,26.2,23.7,29.83,WNW,295,5.0,7.0,90,0.00,,,0.00,meteohub,2013-03-02 11:17:00,
2013-03-02 06:22:00,26.1,23.5,29.83,NNW,344,4.0,7.0,90,0.00,,,0.00,meteohub,2013-03-02 11:22:00,
2013-03-02 06:27:00,26.1,23.5,29.83,NNW,338,2.0,11.0,90,0.00,,,0.00,meteohub,2013-03-02 11:27:00,
2013-03-02 06:32:00,26.1,23.5,29.84,NW,313,5.0,11.0,90,0.00,,,0.00,meteohub,2013-03-02 11:32:00,
2013-03-02 06:37:00,26.1,23.5,29.84,NNW,327,2.0,11.0,90,0.00,,,0.00,meteohub,2013-03-02 11:37:00,
2013-03-02 06:42:00,26.1,23.5,29.84,NNW,332,0.0,8.0,90,0.00,,,0.00,meteohub,2013-03-02 11:42:00,
2013-03-02 06:47:00,26.1,23.5,29.84,North,0,3.0,8.0,90,0.00,,,0.00,meteohub,2013-03-02 11:47:00,
2013-03-02 06:52:00,26.1,23.5,29.84,NW,306,0.0,8.0,90,0.00,,,0.00,meteohub,2013-03-02 11:52:00,
2013-03-02 06:57:00,26.1,23.5,29.84,NNW,327,5.0,5.0,90,0.00,,,0.00,meteohub,2013-03-02 11:57:00,
2013-03-02 07:02:00,26.1,23.5,29.84,NNW,340,2.0,7.0,90,0.00,,,0.00,meteohub,2013-03-02 12:02:00,
2013-03-02 07:07:00,26.1,23.2,29.84,North,5,7.0,7.0,89,0.00,,,0.00,meteohub,2013-03-02 12:07:00,
2013-03-02 07:12:00,26.1,23.2,29.84,NNW,330,1.0,8.0,89,0.00,,,0.00,meteohub,2013-03-02 12:12:00,
2013-03-02 07:17:00,27.1,24.8,29.85,NNW,340,2.0,8.0,91,0.00,,,0.00,meteohub,2013-03-02 12:17:00,
2013-03-02 07:22:00,27.1,24.6,29.85,NNW,333,0.0,8.0,90,0.00,,,0.00,meteohub,2013-03-02 12:22:00,
2013-03-02 07:27:00,27.1,24.6,29.85,North,351,2.0,5.0,90,0.00,,,0.00,meteohub,2013-03-02 12:27:00,
2013-03-02 07:32:00,27.1,24.6,29.85,ESE,113,0.0,5.0,90,0.00,,,0.00,meteohub,2013-03-02 12:32:00,
2013-03-02 07:37:00,27.3,24.8,29.85,West,261,0.0,5.0,90,0.00,,,0.00,meteohub,2013-03-02 12:37:00,
2013-03-02 07:42:00,27.3,24.8,29.85,West,261,0.0,4.0,90,0.00,,,0.00,meteohub,2013-03-02 12:42:00,
2013-03-02 07:47:00,27.7,24.8,29.85,SSW,198,1.0,4.0,89,0.00,,,0.00,meteohub,2013-03-02 12:47:00,
2013-03-02 07:52:00,27.7,24.8,29.85,SSW,198,0.0,4.0,89,0.00,,,0.00,meteohub,2013-03-02 12:52:00,
2013-03-02 07:57:00,27.7,24.6,29.85,East,93,0.0,4.0,88,0.00,,,0.00,meteohub,2013-03-02 12:57:00,
2013-03-02 08:02:00,27.7,24.6,29.85,NNE,20,0.0,4.0,88,0.00,,,0.00,meteohub,2013-03-02 13:02:00,
2013-03-02 08:07:00,27.7,24.6,29.85,NW,307,2.0,5.0,88,0.00,,,0.00,meteohub,2013-03-02 13:07:00,
2013-03-02 08:12:00,27.7,24.8,29.85,NW,307,0.0,9.0,89,0.00,,,0.00,meteohub,2013-03-02 13:12:00,
2013-03-02 08:17:00,27.7,24.6,29.85,NNW,347,0.0,9.0,88,0.00,,,0.00,meteohub,2013-03-02 13:17:00,
2013-03-02 08:22:00,27.7,24.6,29.85,NE,53,1.0,5.0,88,0.00,,,0.00,meteohub,2013-03-02 13:22:00,
2013-03-02 08:27:00,27.7,24.8,29.85,NW,325,0.0,3.0,89,0.00,,,0.00,meteohub,2013-03-02 13:27:00,
2013-03-02 08:32:00,27.7,24.8,29.85,NNW,341,0.0,5.0,89,0.00,,,0.00,meteohub,2013-03-02 13:32:00,
2013-03-02 08:37:00,27.7,24.8,29.85,WNW,301,3.0,6.0,89,0.00,,,0.00,meteohub,2013-03-02 13:37:00,
2013-03-02 08:42:00,27.7,24.8,29.85,NNW,347,5.0,6.0,89,0.00,,,0.00,meteohub,2013-03-02 13:42:00,
2013-03-02 08:47:00,27.7,24.8,29.85,ENE,61,2.0,7.0,89,0.00,,,0.00,meteohub,2013-03-02 13:47:00,
2013-03-02 08:52:00,27.7,24.8,29.85,NNE,15,0.0,7.0,89,0.00,,,0.00,meteohub,2013-03-02 13:52:00,
2013-03-02 08:58:00,27.9,25.0,29.85,NW,318,2.0,7.0,89,0.00,,,0.00,meteohub,2013-03-02 13:58:00,
2013-03-02 09:03:00,28.0,25.0,29.85,SE,129,0.0,7.0,88,0.00,,,0.00,meteohub,2013-03-02 14:03:00,
2013-03-02 09:08:00,28.2,25.2,29.85,SSW,207,0.0,6.0,88,0.00,,,0.00,meteohub,2013-03-02 14:08:00,
2013-03-02 09:13:00,28.2,25.2,29.85,WNW,290,0.0,5.0,88,0.00,,,0.00,meteohub,2013-03-02 14:13:00,
2013-03-02 09:18:00,28.4,25.3,29.85,NW,315,0.0,6.0,88,0.00,,,0.00,meteohub,2013-03-02 14:18:00,
2013-03-02 09:23:00,28.4,25.3,29.85,NW,319,0.0,6.0,88,0.00,,,0.00,meteohub,2013-03-02 14:23:00,
2013-03-02 09:28:00,28.8,25.7,29.85,East,92,1.0,5.0,88,0.00,,,0.00,meteohub,2013-03-02 14:28:00,
2013-03-02 09:33:00,28.8,25.3,29.85,NW,311,0.0,5.0,87,0.00,,,0.00,meteohub,2013-03-02 14:33:00,
2013-03-02 09:38:00,28.8,25.3,29.85,ENE,70,2.0,5.0,87,0.00,,,0.00,meteohub,2013-03-02 14:38:00,
2013-03-02 09:43:00,28.6,25.2,29.85,NW,312,0.0,6.0,87,0.00,,,0.00,meteohub,2013-03-02 14:43:00,
2013-03-02 09:48:00,28.6,25.2,29.85,SSE,153,0.0,6.0,87,0.00,,,0.00,meteohub,2013-03-02 14:48:00,
2013-03-02 09:53:00,28.8,25.3,29.85,ENE,59,1.0,6.0,87,0.00,,,0.00,meteohub,2013-03-02 14:53:00,
2013-03-02 09:58:00,28.8,25.3,29.85,NW,306,0.0,5.0,87,0.00,,,0.00,meteohub,2013-03-02 14:58:00,
2013-03-02 10:03:00,28.9,25.5,29.85,NNE,19,2.0,5.0,87,0.00,,,0.00,meteohub,2013-03-02 15:03:00,
2013-03-02 10:08:00,29.1,25.5,29.85,NE,36,0.0,6.0,86,0.00,,,0.00,meteohub,2013-03-02 15:08:00,
2013-03-02 10:13:00,29.1,25.5,29.85,SSE,160,0.0,6.0,86,0.00,,,0.00,meteohub,2013-03-02 15:13:00,
2013-03-02 10:18:00,28.9,25.3,29.85,NE,51,2.0,3.0,86,0.00,,,0.00,meteohub,2013-03-02 15:18:00,
2013-03-02 10:23:00,28.9,25.3,29.85,NE,51,0.0,3.0,86,0.00,,,0.00,meteohub,2013-03-02 15:23:00,
2013-03-02 10:28:00,28.8,24.8,29.85,West,261,1.0,3.0,85,0.00,,,0.00,meteohub,2013-03-02 15:28:00,
2013-03-02 10:33:00,28.8,24.8,29.85,SE,128,1.0,4.0,85,0.00,,,0.00,meteohub,2013-03-02 15:33:00,
2013-03-02 10:38:00,28.8,24.8,29.85,SE,144,0.0,4.0,85,0.00,,,0.00,meteohub,2013-03-02 15:38:00,
2013-03-02 10:43:00,28.8,24.8,29.85,NW,315,3.0,4.0,85,0.00,,,0.00,meteohub,2013-03-02 15:43:00,
2013-03-02 10:48:00,28.8,24.8,29.85,NNW,328,3.0,6.0,85,0.00,,,0.00,meteohub,2013-03-02 15:48:00,
2013-03-02 10:53:00,28.8,24.8,29.85,WNW,292,0.0,6.0,85,0.00,,,0.00,meteohub,2013-03-02 15:53:00,
2013-03-02 10:58:00,28.8,24.8,29.85,WNW,298,0.0,6.0,85,0.00,,,0.00,meteohub,2013-03-02 15:58:00,
2013-03-02 11:03:00,28.9,24.8,29.85,South,178,0.0,5.0,84,0.00,,,0.00,meteohub,2013-03-02 16:03:00,
2013-03-02 11:08:00,28.9,24.8,29.85,NE,53,1.0,5.0,84,0.00,,,0.00,meteohub,2013-03-02 16:08:00,
2013-03-02 11:13:00,28.9,24.8,29.85,WNW,300,1.0,6.0,84,0.01,,,0.01,meteohub,2013-03-02 16:13:00,
2013-03-02 11:18:00,29.1,24.6,29.85,NE,49,0.0,6.0,83,0.01,,,0.01,meteohub,2013-03-02 16:18:00,
2013-03-02 11:23:00,29.1,25.0,29.85,NNW,329,0.0,7.0,84,0.01,,,0.01,meteohub,2013-03-02 16:23:00,
2013-03-02 11:28:00,29.3,24.8,29.84,NW,326,1.0,9.0,83,0.01,,,0.01,meteohub,2013-03-02 16:28:00,
2013-03-02 11:33:00,29.7,25.2,29.84,NNE,28,0.0,9.0,83,0.01,,,0.01,meteohub,2013-03-02 16:33:00,
2013-03-02 11:38:00,29.7,25.2,29.84,NE,53,0.0,9.0,83,0.01,,,0.01,meteohub,2013-03-02 16:38:00,
2013-03-02 11:43:00,29.7,25.2,29.84,SSE,148,0.0,5.0,83,0.01,,,0.01,meteohub,2013-03-02 16:43:00,
2013-03-02 11:48:00,29.5,25.0,29.84,NW,318,2.0,6.0,83,0.01,,,0.01,meteohub,2013-03-02 16:48:00,
2013-03-02 11:53:00,29.5,25.2,29.84,East,87,1.0,6.0,84,0.02,,,0.02,meteohub,2013-03-02 16:53:00,
2013-03-02 11:58:00,29.5,25.0,29.84,East,90,0.0,6.0,83,0.02,,,0.02,meteohub,2013-03-02 16:58:00,
2013-03-02 12:03:00,29.5,25.0,29.84,North,5,1.0,6.0,83,0.02,,,0.02,meteohub,2013-03-02 17:03:00,
2013-03-02 12:08:00,29.1,25.0,29.83,NE,47,1.0,5.0,84,0.02,,,0.02,meteohub,2013-03-02 17:08:00,
2013-03-02 12:13:00,29.1,25.2,29.83,WNW,288,0.0,6.0,85,0.01,,,0.02,meteohub,2013-03-02 17:13:00,
2013-03-02 12:19:00,29.1,25.2,29.83,WNW,287,0.0,6.0,85,0.01,,,0.02,meteohub,2013-03-02 17:19:00,
2013-03-02 12:24:00,29.3,25.3,29.83,NW,305,1.0,4.0,85,0.01,,,0.02,meteohub,2013-03-02 17:24:00,
2013-03-02 12:29:00,29.1,25.2,29.83,NW,306,0.0,4.0,85,0.01,,,0.02,meteohub,2013-03-02 17:29:00,
2013-03-02 12:34:00,29.3,25.7,29.83,NW,306,1.0,5.0,86,0.01,,,0.02,meteohub,2013-03-02 17:34:00,
2013-03-02 12:39:00,29.3,25.7,29.83,NW,311,0.0,5.0,86,0.01,,,0.02,meteohub,2013-03-02 17:39:00,
2013-03-02 12:44:00,29.5,25.9,29.83,NW,315,0.0,5.0,86,0.01,,,0.02,meteohub,2013-03-02 17:44:00,
2013-03-02 12:49:00,29.5,25.5,29.83,NW,315,0.0,5.0,85,0.01,,,0.02,meteohub,2013-03-02 17:49:00,
2013-03-02 12:54:00,29.5,25.5,29.82,West,273,0.0,5.0,85,0.00,,,0.02,meteohub,2013-03-02 17:54:00,
2013-03-02 12:59:00,29.5,25.5,29.82,WNW,297,4.0,5.0,85,0.00,,,0.02,meteohub,2013-03-02 17:59:00,
2013-03-02 13:04:00,29.7,25.7,29.82,NW,323,0.0,5.0,85,0.00,,,0.02,meteohub,2013-03-02 18:04:00,
2013-03-02 13:09:00,29.7,25.3,29.82,NW,311,0.0,5.0,84,0.00,,,0.02,meteohub,2013-03-02 18:09:00,
2013-03-02 13:14:00,29.7,25.3,29.82,NW,312,0.0,5.0,84,0.00,,,0.02,meteohub,2013-03-02 18:14:00,
2013-03-02 13:19:00,29.7,25.3,29.82,SE,128,0.0,3.0,84,0.00,,,0.02,meteohub,2013-03-02 18:19:00,
2013-03-02 13:24:00,29.7,25.3,29.82,North,5,0.0,4.0,84,0.00,,,0.02,meteohub,2013-03-02 18:24:00,
2013-03-02 13:29:00,29.7,25.3,29.82,NNW,339,0.0,6.0,84,0.00,,,0.02,meteohub,2013-03-02 18:29:00,
2013-03-02 13:34:00,29.7,25.3,29.82,ENE,71,0.0,6.0,84,0.00,,,0.02,meteohub,2013-03-02 18:34:00,
2013-03-02 13:39:00,29.5,25.5,29.82,NE,55,0.0,6.0,85,0.00,,,0.02,meteohub,2013-03-02 18:39:00,
2013-03-02 13:44:00,29.7,25.7,29.82,NW,325,0.0,10.0,85,0.00,,,0.02,meteohub,2013-03-02 18:44:00,
2013-03-02 13:49:00,29.7,25.7,29.82,SSE,154,0.0,10.0,85,0.00,,,0.02,meteohub,2013-03-02 18:49:00,
2013-03-02 13:54:00,29.7,25.7,29.82,East,95,0.0,7.0,85,0.01,,,0.03,meteohub,2013-03-02 18:54:00,
2013-03-02 13:59:00,29.7,25.7,29.82,NNE,26,0.0,5.0,85,0.01,,,0.03,meteohub,2013-03-02 18:59:00,
2013-03-02 14:04:00,29.7,25.7,29.82,East,87,3.0,5.0,85,0.01,,,0.03,meteohub,2013-03-02 19:04:00,
2013-03-02 14:09:00,29.7,26.1,29.81,WNW,293,2.0,5.0,86,0.01,,,0.03,meteohub,2013-03-02 19:09:00,
2013-03-02 14:14:00,29.5,25.5,29.81,North,0,1.0,3.0,85,0.01,,,0.03,meteohub,2013-03-02 19:14:00,
2013-03-02 14:19:00,29.5,25.5,29.82,NW,321,1.0,4.0,85,0.01,,,0.03,meteohub,2013-03-02 19:19:00,
2013-03-02 14:24:00,29.1,25.2,29.82,ESE,108,0.0,4.0,85,0.01,,,0.03,meteohub,2013-03-02 19:24:00,
2013-03-02 14:29:00,28.9,25.3,29.81,North,9,0.0,6.0,86,0.01,,,0.03,meteohub,2013-03-02 19:29:00,
2013-03-02 14:34:00,28.9,25.3,29.82,North,5,0.0,7.0,86,0.01,,,0.03,meteohub,2013-03-02 19:34:00,
2013-03-02 14:39:00,28.9,25.3,29.82,NW,321,2.0,7.0,86,0.01,,,0.03,meteohub,2013-03-02 19:39:00,
2013-03-02 14:44:00,28.9,25.3,29.82,South,187,1.0,7.0,86,0.01,,,0.03,meteohub,2013-03-02 19:44:00,
2013-03-02 14:49:00,28.9,25.3,29.82,WNW,294,0.0,4.0,86,0.01,,,0.03,meteohub,2013-03-02 19:49:00,
2013-03-02 14:54:00,28.9,25.3,29.82,East,81,0.0,4.0,86,0.00,,,0.03,meteohub,2013-03-02 19:54:00,
2013-03-02 14:59:00,28.9,25.3,29.82,WNW,299,0.0,4.0,86,0.00,,,0.03,meteohub,2013-03-02 19:59:00,
2013-03-02 15:04:00,28.9,25.0,29.82,NW,309,1.0,4.0,85,0.00,,,0.03,meteohub,2013-03-02 20:04:00,
2013-03-02 15:09:00,28.8,24.8,29.82,NW,319,0.0,6.0,85,0.00,,,0.03,meteohub,2013-03-02 20:09:00,
2013-03-02 15:14:00,28.9,24.8,29.82,East,89,1.0,6.0,84,0.00,,,0.03,meteohub,2013-03-02 20:14:00,
2013-03-02 15:19:00,28.8,23.9,29.82,East,79,1.0,6.0,82,0.00,,,0.03,meteohub,2013-03-02 20:19:00,
2013-03-02 15:24:00,28.8,23.9,29.82,NE,45,2.0,7.0,82,0.01,,,0.04,meteohub,2013-03-02 20:24:00,
2013-03-02 15:29:00,28.8,24.3,29.82,North,350,0.0,7.0,83,0.01,,,0.04,meteohub,2013-03-02 20:29:00,
2013-03-02 15:34:00,28.6,24.1,29.82,WNW,290,0.0,7.0,83,0.01,,,0.04,meteohub,2013-03-02 20:34:00,
2013-03-02 15:39:00,28.6,24.1,29.82,WNW,285,0.0,6.0,83,0.01,,,0.04,meteohub,2013-03-02 20:39:00,
2013-03-02 15:44:00,28.6,24.1,29.82,ENE,69,0.0,6.0,83,0.01,,,0.04,meteohub,2013-03-02 20:44:00,
2013-03-02 15:49:00,28.2,23.7,29.82,WNW,288,0.0,6.0,83,0.01,,,0.04,meteohub,2013-03-02 20:49:00,
2013-03-02 15:54:00,28.2,24.1,29.82,WNW,288,0.0,3.0,84,0.01,,,0.04,meteohub,2013-03-02 20:54:00,
2013-03-02 15:59:00,28.2,24.1,29.82,WNW,298,0.0,3.0,84,0.01,,,0.04,meteohub,2013-03-02 20:59:00,
2013-03-02 16:04:00,28.2,24.3,29.82,SSE,155,0.0,3.0,85,0.01,,,0.04,meteohub,2013-03-02 21:04:00,
2013-03-02 16:09:00,28.2,24.6,29.82,South,186,0.0,3.0,86,0.01,,,0.04,meteohub,2013-03-02 21:09:00,
2013-03-02 16:14:00,28.0,24.4,29.82,NNW,333,1.0,3.0,86,0.01,,,0.04,meteohub,2013-03-02 21:14:00,
2013-03-02 16:19:00,28.0,24.4,29.83,North,350,0.0,3.0,86,0.01,,,0.04,meteohub,2013-03-02 21:19:00,
2013-03-02 16:24:00,27.9,24.4,29.83,NNE,28,1.0,3.0,87,0.00,,,0.04,meteohub,2013-03-02 21:24:00,
2013-03-02 16:29:00,27.7,24.3,29.82,ENE,65,0.0,5.0,87,0.00,,,0.04,meteohub,2013-03-02 21:29:00,
2013-03-02 16:34:00,27.5,24.4,29.83,East,92,1.0,5.0,88,0.00,,,0.04,meteohub,2013-03-02 21:34:00,
2013-03-02 16:39:00,27.3,24.3,29.83,NNE,15,2.0,5.0,88,0.00,,,0.04,meteohub,2013-03-02 21:39:00,
2013-03-02 16:44:00,27.3,24.3,29.83,NW,316,1.0,5.0,88,0.00,,,0.04,meteohub,2013-03-02 21:44:00,
2013-03-02 16:50:00,27.1,24.1,29.83,NE,42,0.0,5.0,88,0.00,,,0.04,meteohub,2013-03-02 21:50:00,
2013-03-02 16:55:00,27.1,24.1,29.83,NNE,17,0.0,4.0,88,0.00,,,0.04,meteohub,2013-03-02 21:55:00,
2013-03-02 17:00:00,27.1,24.1,29.83,SW,231,1.0,3.0,88,0.00,,,0.04,meteohub,2013-03-02 22:00:00,
2013-03-02 17:05:00,27.0,23.9,29.83,ESE,116,0.0,3.0,88,0.00,,,0.04,meteohub,2013-03-02 22:05:00,
2013-03-02 17:10:00,27.0,23.9,29.83,East,80,2.0,3.0,88,0.00,,,0.04,meteohub,2013-03-02 22:10:00,
2013-03-02 17:15:00,27.0,23.9,29.83,East,92,0.0,4.0,88,0.00,,,0.04,meteohub,2013-03-02 22:15:00,
2013-03-02 17:20:00,26.8,23.7,29.83,North,355,0.0,4.0,88,0.00,,,0.04,meteohub,2013-03-02 22:20:00,
2013-03-02 17:25:00,26.8,23.7,29.83,NE,40,0.0,3.0,88,0.00,,,0.04,meteohub,2013-03-02 22:25:00,
2013-03-02 17:30:00,26.4,23.4,29.84,ENE,67,0.0,3.0,88,0.00,,,0.04,meteohub,2013-03-02 22:30:00,
2013-03-02 17:35:00,26.2,23.4,29.84,NNW,331,0.0,3.0,89,0.00,,,0.04,meteohub,2013-03-02 22:35:00,
2013-03-02 17:40:00,26.2,23.4,29.84,NNW,331,0.0,3.0,89,0.00,,,0.04,meteohub,2013-03-02 22:40:00,
2013-03-02 17:45:00,26.1,23.5,29.84,NNW,333,0.0,3.0,90,0.00,,,0.04,meteohub,2013-03-02 22:45:00,
2013-03-02 17:50:00,25.9,23.4,29.84,NNE,15,0.0,2.0,90,0.00,,,0.04,meteohub,2013-03-02 22:50:00,
2013-03-02 17:55:00,25.7,23.2,29.84,ESE,117,1.0,3.0,90,0.00,,,0.04,meteohub,2013-03-02 22:55:00,
2013-03-02 18:00:00,25.5,23.0,29.85,ESE,118,0.0,3.0,90,0.00,,,0.04,meteohub,2013-03-02 23:00:00,
2013-03-02 18:05:00,25.3,22.8,29.85,North,5,2.0,3.0,90,0.00,,,0.04,meteohub,2013-03-02 23:05:00,
2013-03-02 18:10:00,25.3,23.0,29.85,NE,49,0.0,5.0,91,0.00,,,0.04,meteohub,2013-03-02 23:10:00,
2013-03-02 18:15:00,25.2,22.8,29.85,ENE,71,0.0,5.0,91,0.00,,,0.04,meteohub,2013-03-02 23:15:00,
2013-03-02 18:20:00,25.2,22.8,29.85,North,350,0.0,5.0,91,0.00,,,0.04,meteohub,2013-03-02 23:20:00,
2013-03-02 18:25:00,25.2,22.8,29.85,SW,214,0.0,5.0,91,0.00,,,0.04,meteohub,2013-03-02 23:25:00,
2013-03-02 18:30:00,25.0,22.6,29.85,East,99,0.0,5.0,91,0.00,,,0.04,meteohub,2013-03-02 23:30:00,
2013-03-02 18:35:00,25.0,22.6,29.85,SSW,210,0.0,5.0,91,0.00,,,0.04,meteohub,2013-03-02 23:35:00,
2013-03-02 18:40:00,25.0,22.6,29.86,NNE,26,2.0,3.0,91,0.00,,,0.04,meteohub,2013-03-02 23:40:00,
2013-03-02 18:45:00,25.0,22.6,29.85,North,355,2.0,3.0,91,0.00,,,0.04,meteohub,2013-03-02 23:45:00,
2013-03-02 18:50:00,24.8,22.5,29.85,WNW,302,0.0,5.0,91,0.00,,,0.04,meteohub,2013-03-02 23:50:00,
2013-03-02 18:55:00,24.8,22.8,29.86,ENE,59,1.0,5.0,92,0.00,,,0.04,meteohub,2013-03-02 23:55:00,
2013-03-02 19:00:00,24.6,22.6,29.85,NNW,327,0.0,5.0,92,0.00,,,0.04,meteohub,2013-03-03 00:00:00,
2013-03-02 19:05:00,24.6,22.6,29.85,ENE,59,0.0,5.0,92,0.00,,,0.00,meteohub,2013-03-03 00:05:00,
2013-03-02 19:11:00,24.6,22.6,29.85,NNW,335,0.0,5.0,92,0.00,,,0.00,meteohub,2013-03-03 00:11:00,
2013-03-02 19:16:00,24.6,22.6,29.85,NNW,335,0.0,5.0,92,0.00,,,0.00,meteohub,2013-03-03 00:16:00,
2013-03-02 19:21:00,24.6,22.6,29.85,WNW,298,0.0,4.0,92,0.00,,,0.00,meteohub,2013-03-03 00:21:00,
2013-03-02 19:26:00,24.6,22.6,29.85,WNW,301,0.0,5.0,92,0.00,,,0.00,meteohub,2013-03-03 00:26:00,
2013-03-02 19:31:00,24.6,22.6,29.85,WNW,301,0.0,5.0,92,0.00,,,0.00,meteohub,2013-03-03 00:31:00,
2013-03-02 19:36:00,24.4,22.5,29.85,East,89,2.0,2.0,92,0.00,,,0.00,meteohub,2013-03-03 00:36:00,
2013-03-02 19:41:00,24.4,22.5,29.85,NW,309,0.0,3.0,92,0.00,,,0.00,meteohub,2013-03-03 00:41:00,
2013-03-02 19:46:00,24.4,22.5,29.85,NNW,327,0.0,3.0,92,0.00,,,0.00,meteohub,2013-03-03 00:46:00,
2013-03-02 19:51:00,24.3,22.3,29.85,WNW,292,0.0,3.0,92,0.00,,,0.00,meteohub,2013-03-03 00:51:00,
2013-03-02 19:56:00,24.3,22.3,29.85,NE,38,0.0,3.0,92,0.00,,,0.00,meteohub,2013-03-03 00:56:00,
2013-03-02 20:01:00,24.3,22.3,29.85,NW,323,0.0,3.0,92,0.00,,,0.00,meteohub,2013-03-03 01:01:00,
2013-03-02 20:06:00,24.3,22.3,29.85,ENE,62,0.0,7.0,92,0.00,,,0.00,meteohub,2013-03-03 01:06:00,
2013-03-02 20:11:00,24.1,22.1,29.85,North,9,0.0,7.0,92,0.00,,,0.00,meteohub,2013-03-03 01:11:00,
2013-03-02 20:16:00,24.1,22.1,29.85,West,275,2.0,7.0,92,0.00,,,0.00,meteohub,2013-03-03 01:16:00,
2013-03-02 20:21:00,24.1,22.1,29.85,NNW,328,0.0,4.0,92,0.00,,,0.00,meteohub,2013-03-03 01:21:00,
2013-03-02 20:26:00,23.9,21.7,29.85,ENE,74,0.0,4.0,91,0.00,,,0.00,meteohub,2013-03-03 01:26:00,
2013-03-02 20:31:00,23.9,21.7,29.85,NW,321,0.0,5.0,91,0.00,,,0.00,meteohub,2013-03-03 01:31:00,
2013-03-02 20:36:00,23.9,21.9,29.85,NW,321,0.0,5.0,92,0.00,,,0.00,meteohub,2013-03-03 01:36:00,
2013-03-02 20:41:00,23.9,21.9,29.85,ENE,57,0.0,4.0,92,0.00,,,0.00,meteohub,2013-03-03 01:41:00,
2013-03-02 20:46:00,23.7,21.7,29.85,ENE,78,0.0,5.0,92,0.00,,,0.00,meteohub,2013-03-03 01:46:00,
2013-03-02 20:51:00,23.7,21.7,29.85,ENE,78,0.0,5.0,92,0.00,,,0.00,meteohub,2013-03-03 01:51:00,
2013-03-02 20:56:00,23.7,21.7,29.85,NNE,26,0.0,5.0,92,0.00,,,0.00,meteohub,2013-03-03 01:56:00,
2013-03-02 21:02:00,23.7,21.7,29.86,NE,51,1.0,3.0,92,0.00,,,0.00,meteohub,2013-03-03 02:02:00,
2013-03-02 21:07:00,23.7,21.7,29.86,North,355,0.0,3.0,92,0.00,,,0.00,meteohub,2013-03-03 02:07:00,
2013-03-02 21:12:00,23.5,21.6,29.86,South,190,0.0,3.0,92,0.00,,,0.00,meteohub,2013-03-03 02:12:00,
2013-03-02 21:17:00,23.5,21.6,29.86,WNW,290,1.0,3.0,92,0.00,,,0.00,meteohub,2013-03-03 02:17:00,
2013-03-02 21:22:00,23.5,21.4,29.86,NW,317,2.0,3.0,91,0.00,,,0.00,meteohub,2013-03-03 02:22:00,
2013-03-02 21:27:00,23.4,21.2,29.86,ENE,76,0.0,4.0,91,0.00,,,0.00,meteohub,2013-03-03 02:27:00,
2013-03-02 21:32:00,23.4,21.2,29.86,West,275,0.0,4.0,91,0.00,,,0.00,meteohub,2013-03-03 02:32:00,
2013-03-02 21:37:00,22.6,20.1,29.86,WNW,295,1.0,4.0,90,0.00,,,0.00,meteohub,2013-03-03 02:37:00,
2013-03-02 21:42:00,22.5,19.9,29.86,NW,311,0.0,2.0,90,0.00,,,0.00,meteohub,2013-03-03 02:42:00,
2013-03-02 21:47:00,22.5,20.3,29.86,NW,325,2.0,3.0,91,0.00,,,0.00,meteohub,2013-03-03 02:47:00,
2013-03-02 21:52:00,22.3,19.8,29.86,North,0,4.0,5.0,90,0.00,,,0.00,meteohub,2013-03-03 02:52:00,
2013-03-02 21:57:00,22.3,19.8,29.86,North,350,3.0,9.0,90,0.00,,,0.00,meteohub,2013-03-03 02:57:00,
2013-03-02 22:02:00,22.1,19.6,29.85,NNW,332,3.0,9.0,90,0.00,,,0.00,meteohub,2013-03-03 03:02:00,
2013-03-02 22:07:00,21.9,19.4,29.85,North,350,2.0,6.0,90,0.00,,,0.00,meteohub,2013-03-03 03:07:00,
2013-03-02 22:12:00,21.7,19.2,29.85,NNW,338,2.0,6.0,90,0.00,,,0.00,meteohub,2013-03-03 03:12:00,
2013-03-02 22:17:00,21.7,19.2,29.85,North,355,2.0,5.0,90,0.00,,,0.00,meteohub,2013-03-03 03:17:00,
2013-03-02 22:22:00,21.6,19.0,29.85,NW,313,2.0,5.0,90,0.00,,,0.00,meteohub,2013-03-03 03:22:00,
2013-03-02 22:27:00,21.6,19.0,29.85,NNW,331,2.0,5.0,90,0.00,,,0.00,meteohub,2013-03-03 03:27:00,
2013-03-02 22:32:00,21.4,18.9,29.85,North,10,5.0,8.0,90,0.00,,,0.00,meteohub,2013-03-03 03:32:00,
2013-03-02 22:37:00,21.4,18.7,29.84,NNW,344,3.0,12.0,89,0.00,,,0.00,meteohub,2013-03-03 03:37:00,
2013-03-02 22:42:00,21.4,18.7,29.85,NNW,342,2.0,12.0,89,0.00,,,0.00,meteohub,2013-03-03 03:42:00,
2013-03-02 22:47:00,21.0,18.3,29.84,North,5,2.0,12.0,89,0.00,,,0.00,meteohub,2013-03-03 03:47:00,
2013-03-02 22:52:00,21.0,18.5,29.85,WNW,289,4.0,7.0,90,0.00,,,0.00,meteohub,2013-03-03 03:52:00,
2013-03-02 22:57:00,21.0,18.3,29.84,NNW,342,6.0,12.0,89,0.00,,,0.00,meteohub,2013-03-03 03:57:00,
2013-03-02 23:02:00,20.8,18.3,29.84,NNW,343,7.0,12.0,90,0.00,,,0.00,meteohub,2013-03-03 04:02:00,
2013-03-02 23:07:00,20.8,18.3,29.84,North,355,5.0,12.0,90,0.00,,,0.00,meteohub,2013-03-03 04:07:00,
2013-03-02 23:12:00,20.8,18.3,29.84,NW,317,3.0,9.0,90,0.00,,,0.00,meteohub,2013-03-03 04:12:00,
2013-03-02 23:17:00,20.8,18.3,29.84,NNW,335,3.0,9.0,90,0.00,,,0.00,meteohub,2013-03-03 04:17:00,
2013-03-02 23:22:00,20.7,18.1,29.84,NW,311,5.0,6.0,90,0.00,,,0.00,meteohub,2013-03-03 04:22:00,
2013-03-02 23:27:00,20.7,18.1,29.84,NW,310,4.0,6.0,90,0.00,,,0.00,meteohub,2013-03-03 04:27:00,
2013-03-02 23:32:00,20.7,18.1,29.84,NW,309,2.0,7.0,90,0.00,,,0.00,meteohub,2013-03-03 04:32:00,
2013-03-02 23:37:00,20.7,18.1,29.84,NNW,340,0.0,7.0,90,0.00,,,0.00,meteohub,2013-03-03 04:37:00,
2013-03-02 23:42:00,20.7,18.1,29.84,NNW,340,1.0,4.0,90,0.00,,,0.00,meteohub,2013-03-03 04:42:00,
2013-03-02 23:47:00,20.7,18.1,29.84,NW,306,2.0,4.0,90,0.00,,,0.00,meteohub,2013-03-03 04:47:00,
2013-03-02 23:52:00,20.7,18.1,29.84,NW,306,0.0,6.0,90,0.00,,,0.00,meteohub,2013-03-03 04:52:00,
2013-03-02 23:58:00,20.7,18.1,29.84,North,350,0.0,6.0,90,0.00,,,0.00,meteohub,2013-03-03 04:58:00,